Weather in Maloye Rybushkino

Russia / Nizhny Novgorod Oblast'     55°25′33″N   45°46′36″E
temp.,
°C
wind,
m/s
gust,
m/s
humid.,
%
clouds,
%
prec.,
mm/h
press.,
hPa
HPBL,
m
22 may, sun
sun2200:00+2n228132 0.0 100729
03:00+1nnw2284100 0.0 100630
06:00+3n34785 0.0 1005246
09:00+6n445960 0.0 10031388
12:00+7nnw3453100 0.1 10031412
15:00+7n445799 0.2 10021278
18:00+6nne446067 0.1 10011171
21:00+2nne35755 0.1 1002124
23 may, mon
mon2300:000nnw22815 0.0 100121
03:00−1nw238419 0.0 100059
06:00+2nw457548 0.0 1000340
09:00+6wnw5659100 0.1 9991516
12:00+6wnw6860100 0.1 9991387
15:00+7w6868100 0.3 10001262
18:00+6w6877100 0.4 1000999
21:00+3wsw4994100 0.8 1000565
24 may, tue
tue2400:00+3w51189100 0.1 1001673
03:00+2wsw3992100 0.1 1001403
06:00+3w4896100 0.0 1002431
09:00+3w2597100 0.6 1003469
12:00+5wnw4690100 0.5 1005652
15:00+5wsw4588100 1.1 1007755
18:00+6wsw358095 0.3 1008796
21:00+2w22946 0.5 100933
25 may, wed
wed2500:00+1nw11956 0.0 101010
03:000n11965 0.0 101110
06:00+3nnw23875 0.0 1011195
09:00+7n3364100 0.0 10111297
12:00+7n236298 0.0 1011987
15:00+9nnw345991 0.2 10111251
18:00+8nnw35659 0.2 10111096
21:00+4nw488710 0.2 1012132
26 may, thu
thu2600:00+2nw37925 0.0 1012118
03:00+1nw48955 0.0 1013163
06:00+4nw588970 0.0 1013354
09:00+9nw556635 0.0 10121085
12:00+10wnw5562100 0.0 10131432
15:00+11wnw446019 0.0 10121311
18:00+12w35680 0.0 1011629
21:00+7sw337853 0.0 101023